www.pogodaiklimat.ru

Погода и климат >> Архив погоды >> Россия >> Якутия >> Шелагонцы


АРХИВ ПОГОДЫ в Шелагонцах

Время (UTC), дата Ветер
(напр.,м/с)
 
Видим.   Явления Облачность Т
(С)
Тd
(С)
f
(%)
Тe
(С)
Тes
(С)
Комфортность P
(гПа)
Po
(гПа)
Тmin
(С)
Tmax
(С)
R
(мм)
R24
(мм)
S
(см)
21 16.03 В 1 20 км слаб. снег 10/0
[As op Cs]
-20.2 -20.6 97 -23 -23 1016.3 984.5
00 17.03 штиль 0 20 км слаб. снег 10/0
[Ac As Cs]
-22.1 -22.8 94 -22 -22 1018.8 986.7 -22.4 1 27
03 17.03 СЗ 3 50 км {снег} 8/0
[Cs]
-18.2 -19.4 90 -25 -23 1019.6 988.0 -22.7
06 17.03 З 5 50 км {снег} 4/0
[Ci fib]
-14.2 -17.7 75 -23 -21 1019.8 988.6
09 17.03 З 5 50 км позёмок 3/0
[Ac lent Ci fib]
-13.6 -17.1 75 -22 -22 1020.7 989.6
12 17.03 СЗ 3 50 км {метель} 6/0
[Ac As Ci fib]
-19.0 -21.6 80 -26 -26 1022.8 991.0 -13.2 0.0
15 17.03 СЗ 1 20 км слаб. снег 9/0
[Cs]
-25.5 -26.7 90 -29 -29 1024.5 991.8
18 17.03 штиль 0 20 км слаб. снег 9/0
[Cs]
-30.6 -31.8 89 -31 -31 опасность
обморожения
1025.8 992.3
21 17.03 штиль 0 50 км {снег} 8/0
[Ci sp]
-32.3 -33.4 90 -32 -32 опасность
обморожения
1026.4 992.7
00 18.03 З 1 50 км {снег} 4/0
[Ac lent Cc]
-32.6 -33.6 91 -37 -37 опасность
обморожения
1026.7 992.9 -34.6 0.0 27
03 18.03 З 1 50 км ясно -24.5 -26.4 84 -28 -24 1025.6 993.0
06 18.03 СЗ 3 50 км ясно -17.6 -21.0 75 -25 -22 1024.3 992.5
09 18.03 З 1 50 км 3/0
[Ci fib]
-14.7 -19.8 65 -17 -17 1023.6 992.2
12 18.03 штиль 0 50 км 4/0
[As trans Ci fib]
-25.5 -28.7 74 -26 -26 1025.4 992.7 -14.5
15 18.03 штиль 0 50 км 6/0
[Cs]
-30.1 -31.9 84 -30 -30 1026.2 992.8
18 18.03 штиль 0 20 км слаб. снег 10/0
[Cs]
-35.1 -36.8 84 -35 -35 опасность
обморожения
1027.0 992.9
21 18.03 штиль 0 50 км {снег} 10/0
[Cs]
-34.9 -36.5 85 -35 -35 опасность
обморожения
1027.6 993.5
00 19.03 штиль 0 50 км {снег} 6/0
[Cs]
-37.6 -39.3 84 -38 -37 опасность
обморожения
1028.7 994.2 -38.2 0.0 28
03 19.03 З 1 50 км ясно -28.7 -30.6 84 -33 -29 опасность
обморожения
1027.3 994.0
06 19.03 З 3 50 км ясно -17.5 -21.7 70 -25 -22 1025.0 993.3
09 19.03 З 3 50 км ясно -14.3 -18.6 70 -21 -20 1024.1 992.8
12 19.03 штиль 0 50 км 1/0
[Cc]
-24.5 -27.7 75 -25 -25 1025.7 993.1 -13.4
15 19.03 штиль 0 50 км ясно -32.4 -34.2 84 -32 -32 опасность
обморожения
1027.1 993.4
18 19.03 штиль 0 50 км ясно -37.2 -38.9 84 -37 -37 опасность
обморожения
1027.7 993.3
21 19.03 штиль 0 50 км 3/0
[Ci sp]
-40.5 -42.1 84 -41 -41 опасность
обморожения
1028.4 993.4
00 20.03 штиль 0 50 км ясно -39.5 -41.1 85 -40 -39 опасность
обморожения
1028.2 993.4 -41.7 28
03 20.03 штиль 0 50 км ясно -28.6 -31.0 80 -29 -24 1026.1 992.8
06 20.03 штиль 0 50 км 3/0
[Ci sp]
-14.1 -19.3 65 -14 -10 1022.9 991.6
09 20.03 штиль 0 50 км 3/0
[Cc]
-9.3 -15.5 61 -10 -9 1021.5 990.9
12 20.03 штиль 0 50 км 4/0
[Cc]
-19.0 -23.1 70 -19 -19 1023.1 991.3 -8.8
15 20.03 штиль 0 50 км 3/0
[Cc]
-27.5 -29.3 85 -28 -28 1024.9 991.9
18 20.03 штиль 0 50 км 3/0
[Ci sp]
-31.1 -32.2 90 -31 -31 опасность
обморожения
1025.8 992.3
21 20.03 штиль 0 50 км ясно -34.1 -35.3 89 -34 -34 опасность
обморожения
1026.5 992.5
00 21.03 штиль 0 50 км 1/0
[Ci fib]
-34.6 -35.6 91 -35 -34 опасность
обморожения
1026.6 992.8 -35.5 28
03 21.03 штиль 0 50 км ясно -24.6 -26.5 84 -25 -20 1025.3 992.6
06 21.03 СЗ 1 50 км ясно -11.8 -17.1 65 -14 -10 1022.0 991.0
09 21.03 В 3 50 км 3/0
[Cc]
-6.2 -12.6 60 -11 -11 1019.9 989.6
12 21.03 штиль 0 50 км 6/0
[Cs]
-14.6 -19.7 65 -15 -15 1019.6 988.4 -5.6
15 21.03 штиль 0 50 км 9/0
[Cs]
-19.0 -20.2 90 -19 -19 1018.2 986.5
18 21.03 Ю 3 50 км 10/0
[As trans Cs]
-20.0 -20.6 95 -28 -28 1015.1 983.3
21 21.03 Ю 5
{14}
50 км позёмок 10/0
[Ac trans Ci fib]
-17.1 -23.0 60 -26 -26 1014.2 1009.0
00 22.03 Ю 3
{10}
4000 м сильн. снег {метель} 10/0 600 м
[As op]
-9.9 -11.1 91 -16 -16 1004.8 974.8 -23.8 0.0 28
03 22.03 Ю 5 2000 м сильн. снег {метель} 10/0
[As op]
-8.5 -9.6 92 -16 -16 1001.5 971.6
06 22.03 ЮЗ 1 20 км слаб. снег {метель} 10/4 600 м
[Frnb As op]
-5.8 -8.8 79 -8 -8 998.8 969.2
09 22.03 З 1 20 км слаб. снег {метель} 10/0
[As op]
-3.9 -6.8 80 -6 -6 997.8 968.4
12 22.03 штиль 0 500 м ливневой снег 10/10 600 м
[Cb cap]
-4.6 -4.9 98 -6 -6 996.7 967.4 -3.7 1
15 22.03 штиль 0 4000 м ливневой снег 10/10 600 м
[Cb cap]
-9.1 -9.8 95 -10 -10 997.0 967.1
18 22.03 штиль 0 4000 м сильн. снег {ливн. осадки} 10/0
[As op]
-9.5 -10.7 91 -10 -10 996.4 966.5
21 22.03 СЗ 5 4000 м сильн. снег {метель} 10/0
[As op]
-10.5 -11.1 95 -18 -18 998.1 968.0
00 23.03 СЗ 5 20 км слаб. снег {метель} 10/0 600 м
[As op]
-18.2 -19.4 90 -28 -28 1002.1 971.0 -18.3 2 30
03 23.03 СЗ 9-10
{14}
4000 м сильн. снег {метель} 10/0
[As op]
-19.6 -22.2 80 -33 -32 опасность
обморожения
1004.4 973.0 -19.7
06 23.03 СЗ 9-14
{14}
10 км снег {метель} 10/0
[As op]
-18.5 -21.1 80 -31 -31 опасность
обморожения
1005.8 974.6
09 23.03 С 7-10
{14}
10 км снег {метель} 10/0
[As op]
-17.6 -20.2 80 -29 -29 1008.5 977.2
12 23.03 С 7
{14}
10 км снег {метель} 10/0
[As op]
-18.0 -20.6 80 -29 -29 1011.2 979.8 -17.5 1
15 23.03 С 5 20 км слаб. снег {метель} 10/0
[As op Cs]
-20.0 -22.6 80 -30 -30 1013.5 981.8
18 23.03 СЗ 1 50 км {снег, метель} 4/0
[Ci fib]
-24.8 -26.6 85 -28 -28 1015.8 983.4

 

Местоположение метеостанции Шелагонцы (Якутия, Россия): широта 66.25 долгота 114.20 высота над уровнем моря 236 м.

В архиве по умолчанию представлена погода в Шелагонцах за последнюю неделю. Архивные данные за месяц целиком и за предыдущие месяцы, начиная с января 2011 года, Вы можете получить, выбрав интересующий диапазон дат из раскрывающегося списка и нажав кнопку "Ввод!".


*Определитесь, кто Вы:
робот инопланетянин человек

Внимание! Время в таблицах - всемирное. Для получения местного времени необходимо прибавить поправку, которая равна 9 ч.

Смотрите также архив погоды в соседних городах и на ближайших метеорологических станциях:

Погода в Полярном (Якутия, Россия) (96 км)
Погода в Айхале (Якутия, Россия) (129 км)
Погода в Эйке (Якутия, Россия) (146 км)
Погода в Хабардино (Якутия, Россия) (200 км)
Погода в Чумпуруке (Якутия, Россия) (257 км)
Погода в Оленеке (Якутия, Россия) (262 км)
Погода в Ярольине (Якутия, Россия) (269 км)
Погода в Сухане (Якутия, Россия) (316 км)
Погода в Чернышевском (Якутия, Россия) (368 км)
Погода в Нюрбе (Якутия, Россия) (383 км)

Пояснения к столбцам:

Ветер - указаны скорость ветра в м/с - средняя за 10 мин, порывы в срок и между сроками (в фигурных скобках) и направление, откуда дует ветер: С - северный, СВ - северо-восточный, В - восточный, ЮВ - юго-восточный, Ю - южный, ЮЗ - юго-западный, З - западный, СЗ - северо-западный.
Видимость - горизонтальная дальность видимости в метрах или километрах. При видимости от 1 до 10 км при отсутствии осадков обычно наблюдается дымка, при ухудшении видимости до 1 км и менее - туман. В сухую погоду видимость может ухудшаться дымом, пылью или мглою.
Явления - указаны атмосферные явления, наблюдавшиеся в срок или в последний час перед сроком; фигурными скобками обозначены явления, наблюдавшиеся между сроками (за 1-3 часа до срока); квадратными скобками обозначены град или гололедные отложения с указанием их диаметра в мм.
Облачность - указаны через наклонную черту общая и нижняя облачность в баллах и высота нижней границы облаков в метрах; квадратными скобками обозначены формы облаков: Ci - перистые, Cs - перисто-слоистые, Cc - перисто-кучевые, Ac - высококучевые, As - высокослоистые, Sc - слоисто-кучевые, Ns - слоисто-дождевые, Cu - кучевые, Cb - кучево-дождевые. Подробнее классификацию облаков см. в Атласе облаков (PDF).
T - Температура воздуха - температура, измеренная на высоте 2 м над землей.
Td - Температура точки росы - температура, при понижении до которой содержащийся в воздухе водяной пар достигнет насыщения.
f - Относительная влажность воздуха - влажноcть воздуха, измеренная на высоте 2 м над землей.
Te - Эффективная температура - температура, которую ощущает одетый по сезону человек в тени. Характеристика душности погоды. При расчете учитывается влияние влажности воздуха и скорости ветра на теплоощущения человека.
Tes - Эффективная температура на солнце - температура, которую ощущает человек, с поправкой на солнечный нагрев. Характеристика знойности погоды. Зависит от высоты солнца над горизонтом, облачности и скорости ветра. Ночью, в пасмурную погоду, а также при ветре 12 м/с и более поправка равна нулю.
P - Атмосферное давление - приведенное к уровню моря атмосферное давление.
Po - Атмосферное давление - измеренное на уровне метеостанции атмосферное давление.
Tmin - Минимальная температура - минимум температуры воздуха на высоте 2 м над землей.
Tmax - Максимальная температура - максимум температуры воздуха на высоте 2 м над землей.
R - Количество осадков - Количество выпавших осадков за период времени, мм. При наведении курсора мыши на число - период времени, за который выпало указанное количество осадков.
R24 - Количество осадков - Количество выпавших осадков за 24 часа, мм.
S - Снежный покров - Высота снежного покрова, см. При наведении курсора мыши на число - состояние снежного покрова и степень покрытия местности в баллах.